Weather History for Ingleside, TX

Change the Weather History Date:

Saturday, January 19, 2013

  Actual Average Record
Temperature  
Mean Temperature 60 °F -  
Max Temperature 71 °F - - ()
Min Temperature 48 °F - - ()
Degree Days  
Heating Degree Days 6    
Growing Degree Days 10 (Base 50)    
Moisture  
Dew Point 50 °F    
Average Humidity 75    
Maximum Humidity 96    
Minimum Humidity 44    
Precipitation  
Precipitation 0.00 in - - ()
Sea Level Pressure  
Sea Level Pressure 30.24 in    
Wind  
Wind Speed 6 mph (ESE)    
Max Wind Speed 14 mph    
Max Gust Speed 21 mph    
Visibility 10 miles    
Events      
T = Trace of Precipitation, MM = Missing Value Source: NWS Daily Summary

Daily Weather History Graph

Daily Weather History Graph

Search for Another Location

Airport:

Trip Planner

Search our weather history database for the weather conditions in past years. The results will help you decide how hot, cold, wet, or windy it might be!

Date:

Astronomy

Jan. 19, 2013 Rise Set
Actual Time 7:20 AM CST 5:59 PM CST
Civil Twilight 6:55 AM CST 6:24 PM CST
Nautical Twilight 6:26 AM CST 6:52 PM CST
Astronomical Twilight 5:58 AM CST 7:20 PM CST
Moon 12:20 PM CST (1/19) 1:03 AM CST (1/19)
Length of Visible Light 11h 28m
Length of Day
10h 38m
First Quarter, 57% of the Moon is Illuminated
Jan 19
First Quarter
Jan 26
Full
Feb 3
Last Quarter
Feb 10
New
Feb 17
First Quarter

Hourly Weather History & Observations

Time (CST) Temp. Dew Point Humidity Pressure Visibility Wind Dir Wind Speed Gust Speed Precip Events Conditions
12:15 AM 49.3 °F 48.0 °F 95% 30.33 in 5.0 mi NE 4.6 mph - N/A   Clear
12:35 AM 49.1 °F 47.8 °F 95% 30.32 in 7.0 mi NE 4.6 mph - N/A   Clear
12:55 AM 48.7 °F 47.7 °F 96% 30.32 in 7.0 mi ENE 4.6 mph - N/A   Clear
1:15 AM 49.6 °F 48.6 °F 96% 30.31 in 10.0 mi ENE 5.8 mph - N/A   Clear
1:35 AM 50.2 °F 48.9 °F 95% 30.31 in 10.0 mi ENE 5.8 mph - N/A   Clear
1:55 AM 50.9 °F 49.6 °F 95% 30.30 in 10.0 mi East 5.8 mph - N/A   Clear
2:15 AM 51.6 °F 50.2 °F 95% 30.29 in 10.0 mi East 5.8 mph - N/A   Clear
2:35 AM 52.0 °F 50.2 °F 94% 30.28 in 10.0 mi East 5.8 mph - N/A   Clear
2:55 AM 52.2 °F 50.2 °F 93% 30.28 in 10.0 mi East 5.8 mph - N/A   Clear
3:15 AM 52.7 °F 50.4 °F 92% 30.28 in 10.0 mi East 5.8 mph - N/A   Clear
3:35 AM 52.3 °F 50.2 °F 92% 30.27 in 10.0 mi East 5.8 mph - N/A   Clear
3:55 AM 52.3 °F 50.2 °F 92% 30.27 in 10.0 mi East 4.6 mph - N/A   Clear
4:15 AM 52.2 °F 50.0 °F 92% 30.27 in 10.0 mi Calm Calm - N/A   Clear
4:35 AM 51.1 °F 48.9 °F 92% 30.26 in 10.0 mi East 5.8 mph - N/A   Clear
4:55 AM 52.2 °F 50.0 °F 92% 30.26 in 10.0 mi East 5.8 mph - N/A   Clear
5:15 AM 52.9 °F 50.0 °F 90% 30.26 in 10.0 mi East 5.8 mph - N/A   Clear
5:35 AM 52.5 °F 49.8 °F 91% 30.26 in 10.0 mi East 4.6 mph - N/A   Clear
5:55 AM 52.7 °F 49.8 °F 90% 30.26 in 10.0 mi East 4.6 mph - N/A   Clear
6:55 AM 52.2 °F 49.5 °F 91% 30.27 in 10.0 mi East 5.8 mph - N/A   Clear
7:15 AM 51.6 °F 49.1 °F 91% 30.28 in 10.0 mi East 4.6 mph - N/A   Clear
7:55 AM 51.8 °F 49.6 °F 92% 30.28 in 10.0 mi East 5.8 mph - N/A   Clear
8:35 AM 57.6 °F 54.3 °F 89% 30.29 in 10.0 mi East 4.6 mph - N/A   Scattered Clouds
9:55 AM 66.2 °F 53.8 °F 64% 30.31 in 10.0 mi ESE 9.2 mph - N/A   Clear
10:15 AM 67.5 °F 52.2 °F 58% 30.31 in 10.0 mi ESE 12.7 mph - N/A   Clear
10:35 AM 68.0 °F 52.0 °F 56% 30.31 in 10.0 mi ESE 12.7 mph - N/A   Clear
11:15 AM 69.4 °F 50.9 °F 52% 30.29 in 10.0 mi SE 12.7 mph - N/A   Clear
11:35 AM 70.0 °F 50.7 °F 50% 30.29 in 10.0 mi SE 12.7 mph - N/A   Clear
11:55 AM 70.2 °F 50.9 °F 50% 30.28 in 10.0 mi SE 11.5 mph - N/A   Clear
12:15 PM 70.3 °F 50.5 °F 49% 30.27 in 10.0 mi SSE 9.2 mph - N/A   Mostly Cloudy
12:35 PM 70.9 °F 50.5 °F 48% 30.25 in 10.0 mi SSE 9.2 mph 20.7 mph N/A   Scattered Clouds
12:55 PM 71.1 °F 50.9 °F 49% 30.24 in 10.0 mi South 9.2 mph 17.3 mph N/A   Scattered Clouds
1:15 PM 71.1 °F 51.1 °F 49% 30.23 in 10.0 mi SE 11.5 mph - N/A   Scattered Clouds
1:35 PM 71.4 °F 51.3 °F 49% 30.21 in 10.0 mi SE 12.7 mph - N/A   Clear
1:55 PM 71.4 °F 50.9 °F 48% 30.20 in 10.0 mi SE 11.5 mph 19.6 mph N/A   Clear
2:15 PM 70.9 °F 50.0 °F 48% 30.19 in 10.0 mi SSE 9.2 mph - N/A   Clear
2:35 PM 71.1 °F 49.6 °F 47% 30.19 in 10.0 mi SSE 11.5 mph 16.1 mph N/A   Clear
2:55 PM 71.4 °F 49.8 °F 46% 30.18 in 10.0 mi SSE 13.8 mph - N/A   Clear
3:15 PM 70.7 °F 49.6 °F 47% 30.18 in 10.0 mi South 11.5 mph 17.3 mph N/A   Clear
3:35 PM 70.5 °F 49.1 °F 47% 30.18 in 10.0 mi SSE 9.2 mph - N/A   Clear
3:55 PM 70.5 °F 48.2 °F 45% 30.18 in 10.0 mi SSE 12.7 mph - N/A   Clear
4:15 PM 69.8 °F 47.1 °F 44% 30.18 in 10.0 mi SSE 11.5 mph - N/A   Clear
4:35 PM 69.3 °F 47.3 °F 45% 30.18 in 10.0 mi SE 10.4 mph - N/A   Clear
4:55 PM 68.7 °F 47.5 °F 47% 30.17 in 10.0 mi SE 10.4 mph - N/A   Clear
5:15 PM 67.6 °F 48.7 °F 51% 30.17 in 10.0 mi ESE 11.5 mph - N/A   Clear
5:35 PM 66.2 °F 50.2 °F 56% 30.17 in 10.0 mi SE 8.1 mph - N/A   Clear
5:55 PM 63.7 °F 50.9 °F 63% 30.18 in 10.0 mi ESE 5.8 mph - N/A   Clear
6:15 PM 60.8 °F 50.9 °F 70% 30.18 in 10.0 mi ESE 6.9 mph - N/A   Clear
6:35 PM 59.0 °F 51.1 °F 75% 30.18 in 10.0 mi ESE 6.9 mph - N/A   Clear
6:55 PM 57.2 °F 51.1 °F 80% 30.18 in 10.0 mi ESE 8.1 mph - N/A   Clear
7:15 PM 55.9 °F 51.3 °F 84% 30.19 in 10.0 mi ESE 6.9 mph - N/A   Clear
7:35 PM 57.0 °F 52.0 °F 83% 30.20 in 10.0 mi East 5.8 mph - N/A   Clear
7:55 PM 56.8 °F 51.6 °F 83% 30.20 in 10.0 mi East 6.9 mph - N/A   Clear
8:15 PM 56.1 °F 51.4 °F 84% 30.21 in 10.0 mi ESE 4.6 mph - N/A   Clear
8:35 PM 55.9 °F 51.6 °F 85% 30.22 in 10.0 mi ESE 3.5 mph - N/A   Clear
8:55 PM 54.7 °F 51.1 °F 88% 30.23 in 10.0 mi Calm Calm - N/A   Clear
9:15 PM 54.1 °F 50.9 °F 89% 30.23 in 10.0 mi Calm Calm - N/A   Clear
9:35 PM 54.1 °F 51.4 °F 91% 30.24 in 10.0 mi Calm Calm - N/A   Clear
9:55 PM 54.0 °F 51.1 °F 90% 30.23 in 10.0 mi Calm Calm - N/A   Clear
10:15 PM 53.8 °F 51.3 °F 91% 30.24 in 10.0 mi Calm Calm - N/A   Clear
10:35 PM 53.6 °F 51.4 °F 92% 30.23 in 10.0 mi Calm Calm - N/A   Clear
10:55 PM 53.1 °F 51.3 °F 94% 30.23 in 10.0 mi ESE 3.5 mph - N/A   Clear
11:15 PM 52.5 °F 50.7 °F 94% 30.23 in 5.0 mi ESE 3.5 mph - N/A   Clear
11:35 PM 51.1 °F 49.1 °F 93% 30.22 in 0.8 mi SE 4.6 mph - N/A   Mist
11:55 PM 49.6 °F 48.0 °F 94% 30.22 in 10.0 mi SE 4.6 mph - N/A   Clear